Showing default

DEMO8(TENZING), 48951

Orbit data source: Space-Track

DEMO8(TENZING), 48951 is an American payload satellite in SSO that was launched on Wed, 30 Jun 2021 UTC via an FALCON 9 launch vehicle from the Air Force Eastern Test Range (AFETR). Payload-class satellites include a variety of spacecraft equipped with specific instruments for various scientific and technological missions. These include communications satellites like Starlink; space stations such as the ISS; scientific satellites like the Hubble; Earth observation satellites from companies like Planet Labs, Umbra, and HawkEye 360; GPS; miniature CubeSats for education and research; and military/defense satellites.

Loading next visibility...
Identifier
48951, 2021-059CA
Orbit
SSO
Country
Flag of USUS
Related business
Manufacturer
Astro Digital
Mission
Operational Commercial Technology
Bus & Motor
CORVUS-XL, Unknown motor
Mass
35 kg wet, 35 kg dry
Launch date (UTC)
2021-06-30 (4 years ago)
Launch vehicle
FALCON 9
Launch site
Air Force Eastern Test Range (AFETR)
Object type
Payload
Rocket body
Debris
Shape & HBR
Box + 1 Pan, 0.3 m
Radar Cross Section
0.375 m², Medium (>0.1 m² and < 1m²)

Expand to show TLE details & history
Last TLE update: 12 hours ago

TLE from 12 hours ago
0 DEMO8(TENZING)
1 48951U 21059CA  25308.94149419  .00017253  00000-0  36527-3 0  9997
2 48951  97.7005 121.9329 0009295  87.5612 272.6700 15.45144602242563
Epoch: 2025-11-04T22:35Z
TLE epoch observation values (Epoch: 2025-11-04T22:35:45.098Z)
Latitude
0.00001°
Longitude
98.5737°
Altitude
433.78 km
Speed
7.652 km/s
True Right ascension
08h 07m 43s
True Declination
0° 00' 00"
Sunlit
Object was in daylight at epoch
Visualization orbit readout
Latitude
Unknown
Longitude
Unknown
Altitude
Unknown
Speed
Unknown
Apparent Right ascension
Unknown
Apparent Declination
Unknown
Sunlit
N/A
Visualization observer readout
Local Sidereal Time
06:50:00
Azimuth
Unknown
Elevation
Unknown
Doppler factor
Unknown
Orbital elements
Apogee altitude
434.225 km
Perigee altitude
421.572 km
Semi-major axis
6,806.036 km
Eccentricity
0.00093
Inclination
97.7005°
RAAN
121.9329°
Arg. of periapsis
87.5612°
True anomaly
272.5636°
Mean anomaly
272.67°
Eccentric anomaly
272.6168°
Mean motion
3.86547 °/min
Orbital period
93.13 mins
BSTAR
0.00036527
Loading maneuver chart data...
Computing Atmospheric mass density...

Documentation

Showing up to 5 results
|